Weather History for PHKO - May, 2014

Change the Weather History Date:

Tuesday, May 6, 2014

  Actual Average Record
Temperature  
Mean Temperature 78 °F -  
Max Temperature 82 °F 80 °F 89 °F (1982)
Min Temperature 75 °F 70 °F 66 °F (1991)
Cooling Degree Days 14    
Growing Degree Days 28 (Base 50)    
Moisture  
Dew Point 68 °F    
Average Humidity 70    
Maximum Humidity 79    
Minimum Humidity 63    
Precipitation  
Precipitation 0.00 in - - ()
Sea Level Pressure  
Sea Level Pressure 30.05 in    
Wind  
Wind Speed 5 mph (SW)    
Max Wind Speed 12 mph    
Max Gust Speed -    
Visibility 10 miles    
Events      
Averages and records for this station are not official NWS values.
T = Trace of Precipitation, MM = Missing Value Source: NWS Daily Summary

Daily Weather History Graph

Daily Weather History Graph

Search for Another Location

Airport or City:

Trip Planner

Search our weather history database for the weather conditions in past years. The results will help you decide how hot, cold, wet, or windy it might be!

Date:

Astronomy

May. 06, 2014 Rise Set
Actual Time 5:52 AM HST 6:49 PM HST
Civil Twilight 5:29 AM HST 7:12 PM HST
Nautical Twilight 5:01 AM HST 7:40 PM HST
Astronomical Twilight 4:33 AM HST 8:08 PM HST
Moon 12:08 PM HST (5/6) 12:22 AM HST (5/6)
Length of Visible Light 13h 43m
Length of Day
12h 56m
Waxing Crescent, 48% of the Moon is Illuminated
May 6
Waxing Crescent
May 6
First Quarter
May 14
Full
May 21
Last Quarter
May 28
New

Hourly Weather History & Observations

Time (HST) Temp. Heat Index Dew Point Humidity Pressure Visibility Wind Dir Wind Speed Gust Speed Precip Events Conditions
1:53 AM 78.1 °F - 66.0 °F 66% 30.05 in 10.0 mi SSE 4.6 mph - N/A   Overcast
2:53 AM 78.1 °F - 68.0 °F 71% 30.04 in 10.0 mi Calm Calm - N/A   Overcast
3:53 AM 77.0 °F - 69.1 °F 76% 30.04 in 10.0 mi Calm Calm - N/A   Overcast
4:14 AM 77.0 °F - 66.2 °F 69% 30.04 in 10.0 mi Calm Calm - N/A   Overcast
4:45 AM 77.0 °F - 69.8 °F 78% 30.04 in 10.0 mi WSW 5.8 mph - N/A   Overcast
4:53 AM 75.9 °F - 69.1 °F 79% 30.05 in 10.0 mi SW 4.6 mph - N/A   Overcast
5:53 AM 75.9 °F - 66.0 °F 71% 30.06 in 10.0 mi SW 5.8 mph - N/A   Overcast
6:53 AM 75.9 °F - 68.0 °F 76% 30.07 in 10.0 mi SW 3.5 mph - N/A   Overcast
7:53 AM 77.0 °F - 68.0 °F 74% 30.08 in 10.0 mi West 5.8 mph - N/A   Overcast
8:53 AM 79.0 °F - 66.9 °F 66% 30.09 in 10.0 mi West 5.8 mph - N/A   Overcast
9:53 AM 80.1 °F 82.7 °F 68.0 °F 67% 30.09 in 10.0 mi West 11.5 mph - N/A   Overcast
10:53 AM 82.0 °F 85.5 °F 69.1 °F 65% 30.08 in 10.0 mi WSW 10.4 mph - N/A   Mostly Cloudy
11:53 AM 82.0 °F 85.9 °F 70.0 °F 67% 30.06 in 10.0 mi SW 11.5 mph - N/A   Overcast
12:53 PM 82.0 °F 85.9 °F 70.0 °F 67% 30.04 in 10.0 mi WSW 9.2 mph - N/A   Scattered Clouds
1:53 PM 82.9 °F 86.5 °F 69.1 °F 63% 30.02 in 10.0 mi SW 9.2 mph - N/A   Clear
2:53 PM 82.0 °F 85.9 °F 70.0 °F 67% 30.01 in 10.0 mi SW 9.2 mph - N/A   Mostly Cloudy
3:53 PM 81.0 °F 84.1 °F 69.1 °F 67% 29.99 in 10.0 mi SSW 11.5 mph - N/A   Overcast
4:53 PM 81.0 °F 84.1 °F 69.1 °F 67% 29.99 in 10.0 mi South 10.4 mph - N/A   Overcast
5:53 PM 80.1 °F 82.7 °F 68.0 °F 67% 30.01 in 10.0 mi South 10.4 mph - N/A   Overcast
6:53 PM 78.1 °F - 68.0 °F 71% 30.03 in 10.0 mi East 10.4 mph - N/A   Overcast
7:53 PM 78.1 °F - 68.0 °F 71% 30.05 in 10.0 mi ESE 9.2 mph - N/A   Overcast
8:53 PM 78.1 °F - 66.9 °F 68% 30.06 in 10.0 mi East 6.9 mph - N/A   Overcast
9:53 PM 78.1 °F - 69.1 °F 74% 30.08 in 10.0 mi SE 3.5 mph - N/A   Overcast
10:53 PM 78.1 °F - 70.0 °F 76% 30.08 in 10.0 mi Calm Calm - N/A   Overcast
11:53 PM 77.0 °F - 70.0 °F 79% 30.07 in 10.0 mi West 6.9 mph - N/A   Overcast